QPF
0.03 0.06 0.11 0.10 0.07 0.07 0.08 0.07 0.10 0.10 0.08 0.09 0.10 0.10 0.08 0.08 0.08 0.07 0.04 0.04 0.05 0.06 0.05 0.06 0.08 0.07 0.06 0.07 0.08 0.10 0.09 0.07 0.06 0.07 0.06 0.05 0.04 0.04 0.05 0.05 0.03 0.02 0.05
0.04 0.05 0.07 0.06 0.05 0.05 0.07 0.09 0.11 0.08 0.06 0.06 0.09 0.10 0.10 0.08 0.06 0.05 0.05 0.05 0.05 0.06 0.05 0.06 0.07 0.07 0.06 0.06 0.06 0.07 0.07 0.07 0.06 0.05 0.05 0.04 0.04 0.05 0.06 0.04 0.03 0.03 0.04
0.01 0.02 0.03 0.05 0.06 0.05 0.04 0.06 0.07 0.07 0.06 0.05 0.06 0.07 0.07 0.06 0.05 0.05 0.05 0.05 0.04 0.05 0.07 0.08 0.06 0.08 0.10 0.08 0.07 0.05 0.05 0.06 0.06 0.05 0.05 0.02 0.03 0.06 0.06 0.04 0.03 0.03 0.04
0.01 0.01 0.01 0.02 0.03 0.03 0.02 0.03 0.04 0.05 0.06 0.05 0.06 0.06 0.05 0.06 0.06 0.07 0.05 0.05 0.06 0.07 0.06 0.06 0.07 0.11 0.15 0.12 0.07 0.06 0.05 0.05 0.06 0.05 0.02 0.02 0.03 0.05 0.04 0.03 0.04 0.04 0.04
0.00 0.00 0.01 0.02 0.02 0.03 0.03 0.02 0.03 0.04 0.05 0.05 0.06 0.06 0.06 0.07 0.06 0.07 0.07 0.07 0.10 0.08 0.05 0.06 0.08 0.09 0.17 0.21 0.12 0.06 0.05 0.05 0.05 0.03 0.01 0.01 0.04 0.06 0.04 0.04 0.05 0.06 0.07
0.00 0.00 0.02 0.03 0.02 0.03 0.03 0.03 0.03 0.03 0.03 0.03 0.03 0.05 0.06 0.05 0.07 0.08 0.08 0.07 0.08 0.06 0.03 0.05 0.08 0.07 0.15 0.26 0.20 0.08 0.07 0.07 0.05 0.02 0.01 0.02 0.04 0.06 0.05 0.05 0.06 0.06 0.06
0.00 0.01 0.02 0.04 0.03 0.03 0.03 0.03 0.04 0.03 0.02 0.02 0.03 0.05 0.06 0.05 0.06 0.08 0.08 0.07 0.07 0.06 0.05 0.05 0.08 0.10 0.15 0.18 0.21 0.12 0.07 0.05 0.04 0.03 0.02 0.03 0.05 0.06 0.06 0.06 0.06 0.07 0.06
0.00 0.00 0.01 0.04 0.04 0.03 0.03 0.03 0.04 0.04 0.03 0.03 0.04 0.05 0.05 0.05 0.07 0.09 0.09 0.07 0.07 0.06 0.06 0.06 0.07 0.10 0.12 0.16 0.16 0.12 0.07 0.04 0.03 0.03 0.02 0.03 0.05 0.06 0.06 0.06 0.07 0.06 0.05
0.00 0.01 0.01 0.01 0.03 0.04 0.05 0.04 0.04 0.03 0.04 0.04 0.05 0.06 0.07 0.07 0.07 0.07 0.07 0.07 0.08 0.07 0.07 0.07 0.07 0.08 0.09 0.11 0.12 0.10 0.08 0.07 0.03 0.03 0.03 0.04 0.05 0.05 0.06 0.07 0.06 0.05 0.05
0.01 0.01 0.01 0.01 0.01 0.01 0.02 0.04 0.03 0.03 0.04 0.04 0.06 0.08 0.08 0.08 0.06 0.07 0.06 0.08 0.09 0.08 0.07 0.05 0.05 0.05 0.06 0.08 0.10 0.11 0.10 0.07 0.04 0.03 0.04 0.06 0.07 0.07 0.06 0.05 0.05 0.04 0.04
0.01 0.01 0.01 0.01 0.00 0.00 0.01 0.02 0.03 0.02 0.02 0.01 0.03 0.07 0.06 0.04 0.04 0.05 0.07 0.10 0.09 0.08 0.07 0.05 0.04 0.05 0.05 0.05 0.06 0.07 0.07 0.05 0.04 0.04 0.06 0.09 0.09 0.07 0.06 0.05 0.04 0.03 0.04
0.01 0.01 0.02 0.02 0.01 0.00 0.01 0.01 0.01 0.01 0.01 0.01 0.01 0.02 0.02 0.02 0.04 0.04 0.06 0.08 0.07 0.06 0.05 0.04 0.04 0.03 0.01 0.01 0.02 0.03 0.03 0.03 0.03 0.04 0.07 0.09 0.11 0.10 0.09 0.08 0.06 0.04 0.04
0.01 0.01 0.01 0.01 0.01 0.01 0.01 0.01 0.01 0.01 0.01 0.01 0.00 0.00 0.01 0.01 0.03 0.02 0.02 0.02 0.02 0.01 0.01 0.01 0.01 0.01 0.01 0.01 0.01 0.02 0.03 0.02 0.02 0.03 0.07 0.10 0.12 0.12 0.12 0.09 0.07 0.05 0.05
0.01 0.01 0.01 0.00 0.01 0.01 0.01 0.01 0.01 0.02 0.01 0.01 0.01 0.01 0.01 0.00 0.01 0.01 0.01 0.01 0.01 0.01 0.00 0.00 0.00 0.00 0.00 0.01 0.01 0.02 0.02 0.02 0.02 0.03 0.06 0.10 0.12 0.13 0.11 0.07 0.06 0.06 0.06
0.00 0.01 0.01 0.01 0.00 0.01 0.01 0.01 0.01 0.01 0.01 0.02 0.01 0.01 0.01 0.01 0.01 0.00 0.00 0.01 0.01 0.00 0.00 0.01 0.01 0.01 0.01 0.01 0.02 0.03 0.03 0.02 0.02 0.02 0.04 0.08 0.09 0.10 0.09 0.08 0.08 0.08 0.07
0.01 0.01 0.01 0.02 0.01 0.01 0.02 0.01 0.01 0.01 0.01 0.01 0.01 0.01 0.01 0.02 0.01 0.00 0.01 0.00 0.00 0.00 0.01 0.00 0.01 0.01 0.01 0.01 0.04 0.06 0.05 0.02 0.02 0.02 0.01 0.03 0.07 0.09 0.11 0.10 0.09 0.09 0.10
0.00 0.00 0.01 0.01 0.02 0.01 0.02 0.01 0.01 0.01 0.01 0.01 0.01 0.01 0.00 0.01 0.00 0.00 0.00 0.00 0.00 0.01 0.01 0.00 0.01 0.01 0.00 0.01 0.04 0.06 0.05 0.03 0.02 0.01 0.01 0.02 0.03 0.08 0.10 0.11 0.11 0.11 0.10
0.00 0.01 0.01 0.01 0.01 0.02 0.02 0.01 0.01 0.01 0.01 0.01 0.01 0.01 0.00 0.00 0.00 0.00 0.00 0.00 0.00 0.01 0.00 0.00 0.01 0.00 0.01 0.01 0.03 0.06 0.06 0.02 0.02 0.01 0.01 0.01 0.01 0.02 0.05 0.10 0.14 0.12 0.08
0.01 0.01 0.01 0.01 0.01 0.01 0.01 0.00 0.00 0.01 0.01 0.01 0.01 0.00 0.00 0.00 0.00 0.00 0.00 0.00 0.01 0.00 0.01 0.01 0.01 0.01 0.01 0.02 0.03 0.04 0.06 0.03 0.02 0.01 0.00 0.00 0.01 0.02 0.04 0.07 0.11 0.14 0.11
0.01 0.01 0.02 0.01 0.01 0.01 0.01 0.01 0.00 0.01 0.01 0.01 0.00 0.00 0.01 0.00 0.00 0.00 0.00 0.00 0.00 0.00 0.01 0.01 0.01 0.00 0.01 0.02 0.04 0.03 0.04 0.03 0.01 0.00 0.00 0.01 0.02 0.02 0.04 0.07 0.08 0.12 0.16
0.01 0.01 0.01 0.01 0.01 0.01 0.01 0.00 0.01 0.01 0.01 0.00 0.00 0.00 0.01 0.01 0.00 0.00 0.00 0.00 0.00 0.00 0.01 0.01 0.01 0.01 0.01 0.02 0.04 0.06 0.04 0.03 0.02 0.01 0.01 0.02 0.02 0.05 0.08 0.08 0.06 0.06 0.09
0.01 0.01 0.01 0.01 0.01 0.01 0.01 0.01 0.01 0.01 0.01 0.01 0.00 0.00 0.01 0.01 0.00 0.00 0.01 0.00 0.00 0.00 0.01 0.02 0.02 0.02 0.01 0.02 0.05 0.09 0.05 0.03 0.03 0.03 0.04 0.03 0.02 0.02 0.04 0.07 0.07 0.07 0.07
0.01 0.01 0.01 0.01 0.01 0.01 0.02 0.02 0.02 0.01 0.01 0.01 0.00 0.00 0.00 0.01 0.01 0.00 0.01 0.00 0.00 0.00 0.01 0.02 0.02 0.02 0.01 0.02 0.05 0.07 0.04 0.04 0.05 0.07 0.08 0.04 0.03 0.02 0.04 0.06 0.06 0.07 0.08
0.01 0.01 0.02 0.02 0.03 0.02 0.02 0.03 0.02 0.01 0.01 0.00 0.00 0.00 0.01 0.00 0.01 0.00 0.00 0.00 0.00 0.00 0.01 0.01 0.01 0.02 0.02 0.02 0.04 0.05 0.04 0.03 0.05 0.08 0.08 0.04 0.04 0.04 0.05 0.05 0.06 0.06 0.08
0.02 0.02 0.03 0.03 0.03 0.02 0.01 0.02 0.02 0.01 0.01 0.01 0.00 0.00 0.01 0.00 0.01 0.00 0.00 0.00 0.00 0.00 0.00 0.01 0.01 0.01 0.01 0.02 0.04 0.04 0.03 0.03 0.03 0.05 0.06 0.03 0.03 0.05 0.06 0.07 0.07 0.07 0.08
0.01 0.01 0.02 0.02 0.01 0.01 0.01 0.02 0.02 0.02 0.01 0.01 0.00 0.00 0.00 0.00 0.00 0.00 0.00 0.00 0.00 0.01 0.01 0.01 0.01 0.02 0.02 0.03 0.03 0.03 0.03 0.04 0.03 0.03 0.03 0.02 0.03 0.05 0.06 0.08 0.07 0.06 0.07
MSLP
1016.49 1015.68 1014.95 1014.40 1014.03 1013.85 1013.81 1013.85 1013.91 1013.93 1013.89 1013.78 1013.64 1013.50 1013.38 1013.30 1013.27 1013.27 1013.28 1013.28 1013.27 1013.24 1013.22 1013.20 1013.22 1013.27 1013.35 1013.47 1013.59 1013.70 1013.80 1013.88 1013.94 1013.98 1014.03 1014.08 1014.13 1014.19 1014.24 1014.29 1014.34 1014.39 1014.44
1016.58 1015.80 1015.11 1014.57 1014.23 1014.05 1014.00 1014.02 1014.04 1014.03 1013.97 1013.87 1013.74 1013.63 1013.56 1013.53 1013.55 1013.59 1013.62 1013.64 1013.64 1013.60 1013.57 1013.54 1013.55 1013.59 1013.67 1013.77 1013.89 1014.00 1014.10 1014.19 1014.26 1014.33 1014.40 1014.46 1014.52 1014.58 1014.63 1014.67 1014.70 1014.72 1014.76
1016.53 1015.81 1015.18 1014.71 1014.40 1014.25 1014.20 1014.21 1014.21 1014.18 1014.09 1013.98 1013.87 1013.78 1013.74 1013.75 1013.80 1013.87 1013.92 1013.95 1013.94 1013.90 1013.85 1013.82 1013.81 1013.85 1013.93 1014.04 1014.17 1014.30 1014.42 1014.53 1014.63 1014.73 1014.83 1014.92 1015.00 1015.06 1015.10 1015.12 1015.13 1015.14 1015.16
1016.37 1015.74 1015.21 1014.83 1014.59 1014.48 1014.46 1014.46 1014.44 1014.38 1014.28 1014.16 1014.05 1013.98 1013.96 1013.99 1014.06 1014.14 1014.20 1014.22 1014.20 1014.16 1014.11 1014.07 1014.08 1014.12 1014.22 1014.35 1014.49 1014.65 1014.80 1014.95 1015.09 1015.23 1015.36 1015.47 1015.57 1015.63 1015.66 1015.67 1015.66 1015.65 1015.66
1016.17 1015.66 1015.25 1014.97 1014.82 1014.77 1014.77 1014.78 1014.75 1014.67 1014.55 1014.42 1014.30 1014.24 1014.23 1014.28 1014.35 1014.43 1014.49 1014.51 1014.48 1014.44 1014.40 1014.38 1014.40 1014.47 1014.59 1014.75 1014.93 1015.11 1015.30 1015.48 1015.65 1015.83 1015.98 1016.12 1016.23 1016.29 1016.32 1016.31 1016.28 1016.26 1016.25
1016.03 1015.64 1015.34 1015.17 1015.11 1015.11 1015.15 1015.16 1015.11 1015.02 1014.88 1014.74 1014.63 1014.57 1014.57 1014.63 1014.71 1014.79 1014.84 1014.85 1014.83 1014.80 1014.78 1014.78 1014.84 1014.95 1015.11 1015.29 1015.50 1015.71 1015.91 1016.12 1016.32 1016.51 1016.68 1016.83 1016.94 1017.00 1017.02 1017.00 1016.96 1016.92 1016.91
1016.05 1015.75 1015.55 1015.47 1015.47 1015.51 1015.56 1015.56 1015.51 1015.40 1015.26 1015.12 1015.02 1014.98 1014.99 1015.06 1015.15 1015.22 1015.27 1015.29 1015.28 1015.27 1015.27 1015.32 1015.42 1015.57 1015.76 1015.97 1016.20 1016.42 1016.63 1016.83 1017.03 1017.22 1017.39 1017.54 1017.65 1017.71 1017.72 1017.70 1017.66 1017.62 1017.60
1016.27 1016.03 1015.90 1015.87 1015.90 1015.96 1015.99 1015.98 1015.90 1015.78 1015.64 1015.52 1015.45 1015.44 1015.49 1015.57 1015.67 1015.76 1015.81 1015.83 1015.84 1015.84 1015.88 1015.97 1016.11 1016.30 1016.52 1016.75 1016.98 1017.19 1017.38 1017.56 1017.73 1017.90 1018.06 1018.20 1018.31 1018.37 1018.39 1018.37 1018.33 1018.30 1018.28
1016.68 1016.48 1016.38 1016.36 1016.39 1016.43 1016.43 1016.38 1016.28 1016.16 1016.03 1015.94 1015.91 1015.95 1016.04 1016.16 1016.28 1016.38 1016.43 1016.46 1016.47 1016.50 1016.57 1016.70 1016.88 1017.09 1017.33 1017.56 1017.77 1017.96 1018.11 1018.25 1018.39 1018.52 1018.66 1018.79 1018.89 1018.96 1018.99 1018.98 1018.96 1018.94 1018.94
1017.23 1017.04 1016.95 1016.92 1016.92 1016.91 1016.87 1016.78 1016.66 1016.53 1016.43 1016.39 1016.42 1016.51 1016.66 1016.81 1016.95 1017.05 1017.11 1017.13 1017.15 1017.20 1017.29 1017.44 1017.64 1017.88 1018.13 1018.35 1018.54 1018.68 1018.79 1018.88 1018.97 1019.07 1019.18 1019.29 1019.40 1019.48 1019.53 1019.55 1019.55 1019.55 1019.56
1017.84 1017.66 1017.55 1017.50 1017.45 1017.39 1017.30 1017.18 1017.04 1016.92 1016.86 1016.87 1016.96 1017.12 1017.31 1017.49 1017.65 1017.75 1017.80 1017.82 1017.83 1017.88 1017.99 1018.16 1018.38 1018.63 1018.88 1019.09 1019.25 1019.35 1019.41 1019.45 1019.50 1019.56 1019.65 1019.76 1019.87 1019.97 1020.05 1020.10 1020.13 1020.15 1020.17
1018.42 1018.25 1018.14 1018.06 1017.98 1017.88 1017.75 1017.59 1017.45 1017.36 1017.33 1017.40 1017.55 1017.75 1017.98 1018.19 1018.35 1018.44 1018.48 1018.48 1018.49 1018.54 1018.66 1018.84 1019.07 1019.33 1019.57 1019.78 1019.91 1019.99 1020.01 1020.02 1020.03 1020.06 1020.14 1020.24 1020.36 1020.48 1020.58 1020.66 1020.71 1020.74 1020.78
1018.92 1018.78 1018.68 1018.59 1018.49 1018.36 1018.21 1018.05 1017.91 1017.84 1017.86 1017.97 1018.16 1018.40 1018.65 1018.87 1019.02 1019.10 1019.12 1019.11 1019.12 1019.17 1019.29 1019.49 1019.73 1020.00 1020.25 1020.45 1020.58 1020.64 1020.64 1020.62 1020.61 1020.63 1020.69 1020.79 1020.91 1021.04 1021.16 1021.25 1021.31 1021.36 1021.39
1019.33 1019.23 1019.14 1019.06 1018.96 1018.83 1018.67 1018.53 1018.42 1018.38 1018.43 1018.57 1018.79 1019.05 1019.30 1019.51 1019.65 1019.71 1019.72 1019.71 1019.72 1019.79 1019.92 1020.13 1020.40 1020.68 1020.94 1021.15 1021.28 1021.34 1021.34 1021.31 1021.28 1021.29 1021.34 1021.43 1021.55 1021.67 1021.79 1021.88 1021.95 1021.99 1022.01
1019.65 1019.58 1019.53 1019.47 1019.38 1019.27 1019.14 1019.02 1018.94 1018.94 1019.02 1019.18 1019.40 1019.65 1019.89 1020.08 1020.20 1020.27 1020.28 1020.28 1020.31 1020.40 1020.57 1020.80 1021.09 1021.40 1021.67 1021.89 1022.03 1022.10 1022.11 1022.08 1022.05 1022.05 1022.08 1022.15 1022.25 1022.36 1022.46 1022.54 1022.59 1022.61 1022.61
1019.93 1019.89 1019.86 1019.82 1019.75 1019.67 1019.58 1019.50 1019.46 1019.49 1019.58 1019.75 1019.96 1020.18 1020.39 1020.56 1020.68 1020.75 1020.78 1020.82 1020.90 1021.03 1021.23 1021.51 1021.82 1022.14 1022.43 1022.67 1022.83 1022.91 1022.93 1022.91 1022.88 1022.87 1022.88 1022.92 1022.98 1023.06 1023.12 1023.17 1023.20 1023.20 1023.18
1020.20 1020.17 1020.14 1020.11 1020.07 1020.02 1019.97 1019.94 1019.95 1020.00 1020.10 1020.26 1020.44 1020.63 1020.81 1020.96 1021.08 1021.16 1021.24 1021.34 1021.47 1021.66 1021.91 1022.21 1022.55 1022.88 1023.18 1023.43 1023.60 1023.70 1023.73 1023.73 1023.70 1023.68 1023.66 1023.67 1023.69 1023.72 1023.75 1023.76 1023.76 1023.73 1023.70
1020.50 1020.45 1020.40 1020.37 1020.34 1020.32 1020.32 1020.33 1020.38 1020.46 1020.57 1020.71 1020.86 1021.01 1021.16 1021.29 1021.41 1021.53 1021.66 1021.82 1022.02 1022.26 1022.56 1022.89 1023.23 1023.56 1023.86 1024.10 1024.28 1024.39 1024.44 1024.45 1024.43 1024.40 1024.37 1024.35 1024.33 1024.32 1024.30 1024.28 1024.25 1024.21 1024.16
1020.84 1020.74 1020.65 1020.59 1020.57 1020.57 1020.61 1020.68 1020.77 1020.88 1020.99 1021.11 1021.23 1021.34 1021.45 1021.57 1021.70 1021.85 1022.03 1022.25 1022.52 1022.81 1023.13 1023.47 1023.80 1024.11 1024.39 1024.62 1024.80 1024.92 1024.99 1025.02 1025.02 1024.99 1024.95 1024.91 1024.86 1024.82 1024.77 1024.72 1024.68 1024.64 1024.59
1021.19 1021.02 1020.89 1020.80 1020.77 1020.79 1020.87 1020.99 1021.13 1021.27 1021.40 1021.50 1021.59 1021.66 1021.74 1021.84 1021.97 1022.15 1022.38 1022.64 1022.95 1023.27 1023.60 1023.92 1024.23 1024.50 1024.74 1024.94 1025.11 1025.24 1025.33 1025.39 1025.42 1025.42 1025.39 1025.35 1025.29 1025.22 1025.16 1025.11 1025.07 1025.04 1025.01
1021.51 1021.29 1021.10 1020.98 1020.95 1021.00 1021.12 1021.30 1021.49 1021.67 1021.82 1021.92 1021.98 1022.02 1022.07 1022.14 1022.27 1022.45 1022.70 1022.99 1023.31 1023.63 1023.94 1024.23 1024.48 1024.70 1024.89 1025.06 1025.22 1025.35 1025.48 1025.58 1025.65 1025.68 1025.69 1025.66 1025.61 1025.56 1025.50 1025.46 1025.43 1025.42 1025.41
1021.79 1021.53 1021.30 1021.16 1021.12 1021.20 1021.38 1021.61 1021.87 1022.09 1022.27 1022.37 1022.42 1022.43 1022.44 1022.48 1022.59 1022.76 1023.00 1023.29 1023.59 1023.89 1024.16 1024.39 1024.58 1024.74 1024.88 1025.02 1025.16 1025.31 1025.47 1025.61 1025.74 1025.82 1025.87 1025.88 1025.86 1025.83 1025.80 1025.78 1025.78 1025.79 1025.81
1021.98 1021.71 1021.46 1021.31 1021.29 1021.40 1021.63 1021.93 1022.24 1022.53 1022.73 1022.85 1022.89 1022.88 1022.86 1022.87 1022.94 1023.08 1023.29 1023.55 1023.82 1024.07 1024.29 1024.45 1024.58 1024.68 1024.77 1024.88 1025.01 1025.18 1025.36 1025.56 1025.73 1025.87 1025.97 1026.03 1026.05 1026.05 1026.05 1026.06 1026.09 1026.13 1026.18
1022.10 1021.83 1021.59 1021.45 1021.45 1021.60 1021.87 1022.23 1022.60 1022.94 1023.18 1023.32 1023.36 1023.34 1023.29 1023.27 1023.30 1023.40 1023.57 1023.78 1024.00 1024.20 1024.36 1024.47 1024.54 1024.58 1024.64 1024.72 1024.85 1025.03 1025.24 1025.47 1025.69 1025.88 1026.02 1026.12 1026.18 1026.21 1026.24 1026.28 1026.34 1026.41 1026.48
1022.15 1021.92 1021.70 1021.58 1021.59 1021.77 1022.09 1022.49 1022.91 1023.29 1023.57 1023.73 1023.78 1023.76 1023.69 1023.64 1023.64 1023.70 1023.82 1023.98 1024.16 1024.31 1024.42 1024.49 1024.51 1024.53 1024.56 1024.63 1024.76 1024.94 1025.17 1025.42 1025.66 1025.87 1026.04 1026.16 1026.24 1026.31 1026.36 1026.43 1026.51 1026.60 1026.68
1022.16 1021.98 1021.79 1021.68 1021.72 1021.91 1022.25 1022.67 1023.12 1023.53 1023.84 1024.03 1024.10 1024.08 1024.01 1023.94 1023.92 1023.95 1024.04 1024.17 1024.30 1024.42 1024.51 1024.55 1024.56 1024.56 1024.58 1024.64 1024.76 1024.95 1025.17 1025.41 1025.65 1025.87 1026.04 1026.16 1026.26 1026.33 1026.41 1026.49 1026.59 1026.69 1026.78
Thickness
5753 5757 5759 5760 5761 5762 5763 5763 5764 5764 5764 5764 5765 5765 5765 5765 5765 5766 5766 5767 5767 5768 5769 5769 5769 5770 5770 5771 5771 5771 5771 5771 5771 5771 5772 5772 5772 5772 5772 5771 5771 5771 5770
5754 5756 5757 5758 5759 5760 5760 5761 5761 5761 5761 5761 5761 5762 5762 5762 5762 5763 5763 5764 5764 5765 5765 5765 5766 5766 5767 5768 5768 5768 5769 5769 5768 5768 5769 5769 5769 5769 5769 5769 5769 5768 5768
5753 5754 5755 5756 5756 5757 5757 5758 5758 5758 5758 5758 5758 5759 5759 5759 5759 5760 5760 5761 5761 5762 5762 5762 5762 5763 5763 5764 5764 5765 5765 5765 5765 5765 5765 5765 5765 5765 5765 5765 5765 5765 5765
5752 5752 5753 5754 5754 5754 5754 5755 5755 5755 5755 5755 5755 5755 5755 5755 5755 5756 5756 5757 5757 5758 5758 5758 5759 5759 5759 5760 5760 5761 5761 5761 5761 5760 5760 5761 5761 5761 5761 5762 5762 5762 5762
5750 5750 5751 5751 5751 5751 5751 5752 5752 5752 5751 5752 5752 5752 5752 5752 5752 5752 5753 5753 5753 5754 5754 5754 5755 5755 5755 5756 5756 5756 5756 5756 5756 5755 5756 5756 5757 5757 5757 5757 5758 5758 5758
5748 5748 5748 5748 5748 5748 5748 5749 5749 5748 5748 5748 5748 5748 5748 5748 5748 5748 5748 5749 5749 5750 5750 5750 5751 5751 5751 5751 5751 5752 5751 5751 5751 5751 5751 5752 5752 5753 5753 5753 5753 5753 5753
5746 5746 5746 5746 5746 5746 5745 5745 5745 5745 5745 5745 5745 5745 5745 5744 5744 5744 5745 5745 5745 5746 5746 5746 5746 5747 5747 5747 5747 5747 5747 5746 5746 5746 5746 5747 5747 5748 5748 5748 5748 5748 5749
5744 5743 5743 5742 5742 5742 5742 5742 5742 5742 5742 5742 5742 5741 5741 5741 5741 5741 5741 5741 5741 5742 5742 5742 5742 5742 5742 5743 5743 5742 5742 5741 5741 5741 5741 5742 5742 5743 5743 5743 5743 5743 5743
5742 5740 5739 5739 5739 5738 5738 5739 5738 5738 5738 5738 5738 5738 5737 5737 5737 5736 5737 5737 5737 5737 5737 5737 5737 5737 5737 5737 5737 5737 5736 5736 5736 5737 5737 5737 5738 5738 5738 5738 5738 5738 5738
5738 5737 5736 5736 5735 5735 5735 5735 5735 5735 5734 5734 5734 5734 5733 5733 5732 5732 5732 5733 5733 5733 5732 5732 5732 5731 5732 5732 5732 5732 5732 5731 5732 5732 5732 5732 5733 5733 5733 5733 5733 5733 5733
5734 5734 5733 5733 5732 5732 5732 5731 5731 5731 5730 5730 5730 5730 5729 5729 5728 5728 5728 5728 5728 5728 5727 5727 5726 5726 5726 5726 5726 5726 5726 5726 5727 5727 5727 5728 5728 5728 5728 5728 5728 5728 5728
5729 5730 5731 5730 5729 5729 5729 5728 5728 5727 5727 5726 5726 5726 5725 5725 5724 5724 5724 5723 5723 5723 5723 5722 5721 5721 5720 5720 5720 5720 5720 5721 5721 5722 5722 5723 5723 5723 5723 5723 5722 5723 5723
5727 5728 5728 5727 5727 5726 5725 5725 5724 5724 5723 5723 5722 5722 5721 5720 5720 5719 5719 5718 5718 5717 5717 5716 5716 5715 5715 5715 5715 5715 5715 5715 5716 5716 5717 5717 5717 5718 5717 5718 5718 5718 5718
5725 5725 5726 5726 5725 5724 5723 5722 5721 5720 5719 5719 5718 5718 5717 5716 5715 5714 5713 5713 5712 5712 5711 5711 5710 5710 5710 5709 5709 5709 5709 5709 5710 5710 5710 5711 5712 5712 5712 5713 5713 5713 5713
5723 5724 5724 5724 5722 5721 5720 5719 5718 5717 5716 5715 5715 5714 5714 5712 5711 5710 5709 5708 5708 5707 5707 5706 5705 5705 5705 5704 5704 5704 5703 5703 5704 5704 5704 5706 5706 5707 5707 5708 5708 5708 5708
5722 5722 5722 5721 5720 5719 5717 5716 5715 5714 5713 5712 5711 5710 5710 5709 5707 5706 5705 5704 5703 5703 5702 5701 5701 5700 5700 5699 5699 5698 5698 5698 5698 5698 5699 5699 5700 5701 5702 5703 5703 5703 5703
5720 5720 5720 5719 5717 5716 5714 5713 5712 5711 5710 5709 5708 5707 5706 5705 5704 5703 5701 5700 5699 5699 5698 5697 5697 5696 5695 5694 5693 5693 5693 5692 5692 5692 5693 5694 5694 5695 5696 5697 5698 5698 5698
5719 5718 5717 5717 5715 5713 5711 5710 5709 5708 5706 5705 5704 5703 5703 5702 5701 5699 5698 5697 5696 5695 5695 5693 5692 5691 5689 5688 5687 5687 5687 5687 5687 5687 5687 5688 5689 5689 5690 5691 5692 5692 5693
5718 5716 5715 5713 5712 5710 5708 5707 5705 5704 5703 5701 5701 5700 5699 5698 5697 5696 5695 5694 5693 5692 5691 5690 5688 5687 5684 5683 5683 5682 5681 5681 5681 5682 5682 5682 5683 5684 5684 5685 5686 5686 5687
5716 5714 5712 5711 5709 5707 5705 5703 5701 5700 5699 5698 5697 5697 5696 5695 5694 5693 5692 5690 5690 5688 5686 5685 5684 5682 5681 5680 5679 5677 5676 5676 5676 5676 5676 5676 5677 5678 5678 5679 5680 5680 5681
5713 5711 5709 5707 5706 5703 5701 5698 5696 5694 5694 5694 5694 5693 5693 5692 5691 5690 5689 5687 5686 5684 5683 5682 5680 5678 5676 5676 5674 5671 5671 5671 5671 5671 5671 5671 5672 5672 5673 5673 5674 5674 5675
5711 5709 5707 5705 5704 5702 5699 5697 5694 5692 5691 5690 5690 5690 5690 5689 5688 5688 5686 5684 5683 5681 5679 5678 5677 5675 5673 5673 5670 5666 5663 5663 5664 5666 5666 5666 5666 5667 5667 5668 5668 5669 5669
5709 5707 5707 5704 5702 5700 5698 5695 5692 5690 5688 5687 5687 5686 5687 5687 5686 5685 5684 5682 5680 5679 5676 5675 5675 5673 5670 5669 5669 5666 5660 5656 5656 5659 5660 5661 5662 5662 5662 5663 5663 5664 5664
5709 5708 5705 5703 5701 5699 5696 5694 5690 5686 5683 5684 5684 5684 5684 5684 5683 5683 5681 5680 5678 5677 5675 5674 5673 5672 5670 5666 5665 5664 5663 5660 5655 5652 5655 5656 5658 5657 5658 5659 5659 5659 5659
5709 5706 5704 5701 5699 5697 5695 5693 5689 5686 5684 5683 5682 5682 5681 5681 5681 5680 5679 5678 5677 5675 5673 5672 5671 5669 5668 5666 5663 5662 5659 5657 5655 5652 5649 5651 5652 5653 5653 5654 5655 5655 5655
5707 5705 5702 5699 5697 5695 5693 5691 5689 5686 5683 5681 5680 5679 5678 5678 5678 5678 5677 5676 5675 5673 5672 5670 5669 5667 5666 5664 5662 5661 5659 5656 5653 5651 5648 5647 5647 5648 5649 5650 5650 5650 5650